Location: Alta
(39.2070°N, 120.8111°W)
Time: 07:44:51
(UTC+00:00)

UNISAT 6 - Visible Passes

Search period start: 01 April 2023 00:00
Search period end: 11 April 2023 00:00
Orbit: 602 x 680 km, 97.7° (Epoch: 31 March)

Date Brightness Start Highest point End Pass type
(mag) Time Alt. Az. Time Alt. Az. Time Alt. Az.
01 Apr ? 11:44:15 10° ESE 11:47:00 16° ENE 11:49:48 10° NNE visible
01 Apr ? 13:18:56 10° S 13:23:09 46° W 13:27:29 10° NNW visible
02 Apr ? 02:47:21 10° NNW 02:50:43 20° WNW 02:54:05 10° WSW visible
02 Apr ? 12:06:46 10° SE 12:10:32 28° ENE 12:14:23 10° N visible
03 Apr ? 03:12:33 10° NW 03:14:11 12° WNW 03:15:50 10° W visible
03 Apr ? 12:29:52 10° SSE 12:34:08 50° ENE 12:38:31 10° N visible
04 Apr ? 12:53:23 10° SSE 12:57:49 88° WSW 13:02:23 10° NNW visible
05 Apr ? 11:42:42 10° ESE 11:45:28 16° ENE 11:48:15 10° NNE visible
06 Apr ? 12:05:09 10° SE 12:08:56 28° ENE 12:12:49 10° NNE visible
07 Apr ? 03:10:52 10° NW 03:12:36 12° WNW 03:14:19 10° W visible
07 Apr ? 12:28:12 10° SSE 12:32:30 49° ENE 12:36:55 10° N visible
08 Apr ? 12:51:40 10° SSE 12:56:09 90° NE 13:00:45 10° NNW visible
09 Apr ? 11:41:02 10° ESE 11:43:46 16° ENE 11:46:33 10° NNE visible
10 Apr ? 12:03:25 10° SE 12:07:13 27° ENE 12:11:05 10° NNE visible
